Wind_Speed
63 63 62 61 60 59 60 59 57 56 57 57 56 54 53 53 52 51 50 49 49 49 49 49 48 48 48 47 47 47 47 47 47 47 46 46 46 45 44 43 43 42 42 41 40 40 40 40 40 40 40 41 41 41 42 42 42 43 43 44 44 45 46 46 47 47 48 49 49 50 50 51 51 50 48 46 45 46 47 49 50 51 52 53 54 55
61 61 60 59 58 58 59 58 57 55 54 54 54 53 52 51 51 50 50 49 48 48 48 48 47 47 47 47 47 47 47 48 48 47 47 46 45 44 42 41 40 39 39 38 38 38 38 38 38 39 39 40 40 40 40 41 41 42 42 43 43 44 44 44 45 45 46 47 47 48 48 49 49 50 50 50 50 50 51 52 53 53 55 56 58 60
59 59 59 58 57 56 57 57 55 54 52 51 51 51 50 50 50 50 49 49 48 47 47 47 48 48 49 49 50 50 49 49 48 47 46 44 43 42 41 40 39 38 38 37 37 37 37 38 38 38 39 39 40 40 40 41 41 41 42 42 42 43 43 43 44 44 45 45 46 46 47 47 48 50 51 53 54 55 56 57 57 58 60 61 63 64
56 56 57 57 56 56 55 54 53 52 51 50 50 50 50 50 50 50 49 49 49 49 49 49 50 51 52 52 52 51 50 49 47 45 44 43 42 41 40 39 39 38 37 37 37 37 37 37 38 38 39 39 39 40 40 41 41 42 42 42 43 43 43 43 43 44 44 45 45 46 46 47 48 49 51 53 55 56 58 59 61 62 63 65 66 67
55 54 55 55 55 55 54 53 52 51 51 51 51 51 51 51 51 50 50 50 50 51 52 52 53 53 54 53 52 51 49 47 46 45 44 43 42 41 40 39 38 37 36 36 36 36 36 36 37 37 37 38 38 39 40 40 41 42 42 42 43 43 43 43 44 44 44 45 45 46 46 47 48 49 50 52 54 55 55 58 61 63 64 64 66 68
54 53 53 53 53 53 53 52 52 51 52 52 52 52 52 51 51 51 52 52 53 53 54 54 54 54 53 53 51 50 49 48 46 45 44 43 42 40 39 37 36 35 34 34 34 33 33 33 34 34 35 35 36 37 38 39 40 40 41 42 42 43 43 44 44 44 45 45 46 47 48 48 49 49 50 51 53 53 52 53 57 61 62 63 64 66
53 53 52 52 52 52 52 51 51 51 52 53 54 53 53 52 52 52 53 54 54 55 55 54 53 53 52 51 51 50 49 48 47 45 43 41 39 38 36 34 33 32 31 31 31 30 30 30 31 31 32 33 34 35 36 36 37 38 39 40 42 43 43 44 44 45 46 47 48 49 49 49 50 50 50 51 52 53 53 53 55 58 60 61 61 61
52 52 52 51 51 52 52 51 51 51 52 54 54 54 54 53 53 53 54 54 55 55 55 54 53 52 51 50 50 49 48 47 45 43 40 38 36 34 33 32 31 30 29 29 29 29 29 29 29 30 30 31 32 33 34 35 36 37 38 39 41 42 43 44 45 46 47 48 49 50 50 50 51 51 51 51 51 52 52 53 55 55 56 57 57 56
50 51 52 51 51 51 51 52 51 51 52 53 54 54 54 54 54 55 54 54 54 54 54 54 53 52 50 49 48 47 46 44 42 39 37 35 33 32 31 31 30 30 29 29 29 29 29 29 29 30 30 31 31 32 33 34 35 36 37 38 40 41 42 44 45 47 48 49 49 50 50 51 51 51 51 51 51 51 51 51 52 52 53 53 52 52
50 51 51 52 51 51 51 52 52 52 52 53 53 53 53 54 55 56 55 54 53 52 52 52 52 51 49 47 45 44 42 40 38 36 35 33 33 32 32 32 32 31 31 30 30 30 30 30 30 30 30 31 31 32 32 33 34 35 36 37 38 40 41 42 44 45 46 47 48 49 50 50 51 51 51 51 50 50 50 50 50 50 50 49 49 48
50 51 51 52 53 53 52 53 53 53 53 53 52 52 52 53 54 55 56 54 52 51 50 49 49 48 47 45 43 41 40 39 37 35 34 33 33 34 34 34 34 33 33 32 31 31 31 30 31 31 31 31 31 31 32 33 33 34 35 36 37 38 39 40 41 42 44 45 46 47 48 49 50 50 50 50 50 49 49 49 48 48 48 47 46 45
49 50 51 52 53 54 54 54 54 53 52 52 53 53 52 51 51 52 54 53 52 50 49 47 46 44 44 43 42 41 40 39 38 38 36 36 36 36 37 36 36 35 34 33 32 32 31 31 31 31 31 30 31 31 31 32 32 33 34 34 35 36 37 38 39 40 41 42 43 45 46 47 48 49 49 49 49 49 48 48 47 47 46 45 45 44
48 47 48 50 52 53 53 53 53 52 52 51 52 53 52 50 49 49 50 50 49 48 47 46 44 42 41 41 42 42 42 42 41 40 39 39 38 39 39 39 38 37 36 35 34 32 32 31 31 31 30 30 30 30 30 30 31 31 32 32 33 34 35 35 36 37 38 40 41 42 43 45 46 47 47 47 48 47 47 47 46 46 45 44 44 43
46 46 47 49 51 52 52 52 52 52 51 50 49 49 49 48 47 47 47 47 46 46 45 44 42 41 40 41 42 44 44 44 44 42 41 40 39 40 41 41 40 38 37 37 36 34 33 32 32 31 29 29 28 28 28 28 29 29 30 30 31 32 32 33 34 35 36 37 38 40 41 42 43 44 45 46 46 46 46 46 45 45 44 44 43 41
46 47 49 50 51 51 51 50 50 50 48 47 46 45 45 45 45 44 44 44 44 44 43 43 41 41 41 42 43 44 45 46 45 44 42 40 39 40 41 42 41 39 38 38 37 35 33 33 32 31 29 28 27 27 27 27 28 28 29 29 30 31 31 32 32 33 34 35 36 37 38 40 41 42 43 44 44 44 45 44 44 44 43 43 41 40
48 49 50 51 51 50 49 48 47 47 46 44 43 43 43 42 42 42 42 42 43 43 43 43 43 42 41 41 41 43 44 46 46 45 43 41 40 40 41 43 42 41 39 38 37 35 34 32 31 30 29 28 27 27 27 27 28 28 29 29 30 30 31 31 31 31 32 33 33 35 36 37 38 39 40 41 42 42 43 43 43 42 42 42 41 39
48 49 50 50 49 48 46 45 44 43 42 42 41 40 40 40 40 40 41 41 42 43 44 44 45 45 44 41 40 40 43 45 45 45 44 43 41 41 42 43 43 42 39 37 36 35 33 32 31 30 29 28 27 27 27 27 27 28 28 29 30 30 31 31 31 31 31 31 31 32 33 34 35 37 38 39 40 40 41 41 41 41 41 41 41 40
48 48 48 48 47 46 44 42 41 40 39 39 39 39 38 38 39 39 40 41 43 44 44 45 45 45 45 44 41 39 41 44 45 46 45 45 43 42 41 42 42 41 39 37 35 34 33 31 30 29 28 27 27 26 26 26 26 27 28 28 29 30 31 31 31 31 30 30 30 30 31 32 33 34 35 36 37 38 39 40 40 40 40 41 41 40
47 46 46 45 44 43 41 39 38 37 37 37 38 38 38 38 39 40 41 42 42 43 44 44 44 44 44 44 42 40 41 43 45 46 47 46 44 42 41 42 41 40 38 36 34 33 32 31 29 28 27 26 25 24 24 24 24 25 26 27 28 29 30 30 30 30 30 30 29 29 30 30 31 32 34 35 36 37 38 38 39 40 40 40 40 41
46 44 42 41 41 40 38 37 36 35 35 36 36 37 39 39 40 41 41 42 42 42 43 44 44 44 44 43 42 41 41 43 45 46 47 46 45 43 42 42 42 40 38 36 34 33 32 30 28 27 25 24 23 22 22 22 22 23 24 25 26 27 28 29 30 30 30 30 29 29 29 30 31 31 33 34 35 36 37 38 38 39 40 41 41 41
43 41 38 37 37 37 36 35 34 33 34 34 36 37 39 40 40 41 41 41 42 43 43 43 44 44 43 44 43 42 42 43 44 46 46 46 45 43 42 42 42 41 38 36 34 33 32 30 28 26 25 23 22 21 20 20 21 21 22 23 24 26 27 28 29 30 30 30 30 29 29 30 30 31 32 33 34 36 37 38 39 40 41 42 42 43
40 38 35 34 34 34 34 34 33 32 33 34 35 37 38 39 40 41 41 41 42 43 43 43 44 43 43 43 43 42 41 42 43 45 47 47 46 44 42 42 42 41 39 37 35 34 33 31 29 27 25 23 21 20 19 19 19 20 21 22 24 25 27 28 29 30 30 30 30 30 30 30 31 32 33 34 35 36 38 39 40 41 42 43 44 44
36 35 33 32 32 32 32 32 32 32 32 33 34 36 37 38 39 40 41 42 42 43 43 44 44 43 43 43 42 41 40 41 42 44 46 47 47 45 43 42 42 41 39 38 36 35 34 32 30 28 26 23 21 19 18 18 18 19 20 22 24 25 27 28 29 30 30 30 30 30 31 31 32 33 34 35 36 38 39 40 42 43 44 45 46 46
33 32 32 31 30 30 30 30 31 31 31 32 33 34 36 37 38 39 40 41 42 42 43 44 44 43 42 42 41 40 40 40 41 43 45 46 46 44 43 42 42 41 39 38 37 36 35 33 31 28 26 23 21 19 18 18 18 19 21 22 24 26 28 29 30 30 30 31 31 31 32 32 33 34 35 36 38 39 41 42 43 44 45 46 47 48
30 30 29 29 28 28 28 29 29 30 31 32 33 34 35 37 38 39 39 40 40 41 42 43 43 42 42 41 40 39 39 39 41 42 44 45 45 44 42 42 42 42 40 38 37 36 36 34 31 28 26 23 21 19 18 18 18 19 21 23 25 26 28 29 30 30 31 31 32 32 33 34 35 36 37 39 40 41 42 43 44 45 46 47 48 49
28 27 26 26 26 26 27 27 28 28 29 31 32 34 35 36 37 38 38 38 38 39 41 42 42 42 41 40 39 39 39 39 40 41 42 43 44 44 42 42 42 42 41 40 39 38 37 34 31 29 26 23 21 19 17 17 18 19 21 23 24 26 27 28 29 30 30 31 32 33 34 36 37 38 39 40 41 42 43 44 44 45 46 46 47 48
25 24 24 24 25 25 26 26 27 27 28 29 31 32 33 35 36 36 36 36 37 38 39 40 41 41 40 39 39 39 39 39 39 40 41 42 43 44 43 42 42 42 42 41 40 39 38 35 32 29 26 23 20 18 16 16 17 19 20 22 23 24 25 27 28 29 30 31 32 34 36 37 39 39 40 41 41 42 42 43 43 43 43 44 44 45
22 22 23 23 24 25 25 26 26 27 28 28 29 30 31 33 34 35 35 36 36 37 37 38 39 40 40 40 39 39 39 39 38 39 40 41 43 43 43 43 42 43 43 43 42 39 37 35 33 30 26 23 20 18 16 16 17 18 19 20 21 23 24 25 26 28 29 31 33 34 36 37 37 38 38 38 38 38 38 38 38 38 39 39 40 40
21 21 22 23 24 24 25 25 26 26 27 27 28 29 30 31 33 33 34 34 34 35 35 36 37 38 40 40 40 39 38 37 37 38 39 41 42 43 43 42 42 43 43 44 43 39 36 34 32 31 27 23 20 18 17 16 16 17 18 18 19 20 22 23 25 27 28 30 31 32 33 33 33 32 32 32 32 32 32 32 32 33 34 35 36 37
21 21 22 23 23 24 24 25 25 26 26 27 28 29 30 31 31 31 32 32 32 33 33 34 36 38 40 41 41 40 38 37 36 37 38 40 42 43 43 42 42 42 43 44 44 41 36 31 30 29 27 24 20 18 16 15 15 16 16 16 17 18 20 22 23 25 26 27 27 27 27 27 27 26 26 26 27 28 28 29 30 31 33 34 36 37
22 22 23 23 23 24 24 25 26 27 27 28 29 29 29 29 29 29 29 29 30 31 32 34 35 37 39 40 41 41 40 37 36 37 38 40 42 43 43 43 42 42 42 43 44 43 39 31 27 25 24 22 19 16 15 14 15 15 15 16 16 17 18 19 21 21 22 22 22 22 22 22 22 23 24 25 26 27 28 28 29 31 33 35 36 38
23 23 24 24 24 25 25 26 27 28 29 29 29 28 28 28 28 27 27 28 28 30 31 33 35 36 37 39 40 40 40 38 37 37 39 40 42 43 43 43 43 42 41 40 40 41 39 34 27 22 20 19 17 14 13 14 14 15 15 15 15 15 16 17 18 18 18 18 18 18 19 20 21 23 24 25 26 27 28 29 30 31 33 34 36 37
24 24 25 25 26 26 27 28 29 30 29 29 28 27 27 26 26 26 26 26 27 28 30 32 34 35 37 38 38 39 39 38 37 38 38 40 41 42 43 43 42 42 40 38 37 36 35 32 27 22 19 17 15 14 13 13 14 14 15 15 14 14 15 16 16 17 17 17 17 18 19 20 21 23 24 25 26 27 28 28 28 29 30 32 33 33
24 25 25 26 27 28 29 30 30 29 28 27 26 25 25 25 25 25 25 26 26 27 29 31 33 35 37 38 39 39 38 37 37 37 37 39 40 41 42 42 41 40 39 37 34 32 30 28 25 22 18 15 14 13 13 13 13 14 14 15 15 15 15 16 17 17 18 18 18 19 19 20 21 22 23 24 24 25 25 26 26 27 28 29 30 31
25 26 27 28 30 31 31 31 30 29 27 25 25 24 24 25 25 25 25 25 26 26 27 29 30 33 35 37 39 39 38 37 36 36 36 37 38 40 40 40 39 38 36 34 32 29 27 24 22 20 18 16 14 13 14 14 15 15 16 16 16 16 17 18 19 19 20 20 20 21 21 21 21 21 21 21 22 22 23 24 25 26 27 28 29 30
27 28 29 31 32 32 32 31 29 28 26 24 23 23 24 24 25 25 26 26 26 26 26 27 28 30 32 35 37 38 38 37 36 35 35 35 37 38 38 37 35 34 33 31 28 26 24 22 21 20 19 18 17 16 17 17 18 18 18 18 18 18 19 20 21 22 22 22 22 22 22 22 21 20 20 20 21 22 23 24 25 26 27 28 30 31
29 30 31 32 33 33 32 30 29 27 25 24 23 23 24 24 25 26 26 26 27 27 27 27 27 28 29 32 34 36 37 36 35 34 34 34 35 35 35 34 31 30 28 27 26 24 23 22 21 21 21 21 21 21 21 20 20 20 20 21 21 21 22 23 23 24 25 25 24 24 23 23 22 22 21 21 22 23 24 25 26 27 28 29 30 32
31 32 32 33 33 32 31 29 27 26 24 23 23 23 24 25 26 27 27 27 27 27 27 27 27 27 28 30 32 33 34 34 34 33 32 32 33 33 32 30 28 25 24 23 23 23 22 23 23 23 22 22 23 24 24 23 22 21 21 22 23 24 25 26 26 27 27 27 27 26 26 25 25 24 23 23 23 23 24 25 26 27 29 30 31 32
32 32 33 33 32 31 30 28 26 24 23 23 23 24 25 25 26 27 27 28 28 28 28 27 27 26 27 28 30 31 32 32 32 31 31 31 30 30 29 27 24 22 21 20 21 22 22 23 23 24 23 23 23 24 24 24 24 23 21 21 23 25 27 28 29 30 31 31 31 30 30 29 28 27 26 25 24 24 25 26 27 29 30 32 33 33
32 33 33 32 32 30 27 25 24 23 22 22 22 23 24 25 26 26 27 27 28 28 28 27 26 25 26 27 29 30 30 30 30 29 29 29 28 27 25 24 22 20 19 19 20 21 22 22 23 23 23 23 24 25 26 26 26 26 24 24 26 28 29 30 32 33 33 34 34 34 33 32 31 30 28 27 27 27 28 29 31 32 33 34 35 35
32 32 33 32 30 28 25 23 22 21 21 21 22 23 25 26 27 28 28 28 28 28 27 27 25 24 24 25 27 28 29 29 28 28 27 26 25 24 22 21 20 19 18 19 19 20 21 22 22 22 23 23 23 24 26 27 28 29 29 29 30 31 31 33 34 35 36 36 36 36 36 35 34 32 31 30 29 30 31 33 35 36 36 36 36 34
32 32 32 31 29 26 23 21 20 19 19 20 22 23 25 27 29 30 30 30 30 29 28 27 26 24 24 24 26 27 27 27 26 26 25 24 23 21 20 19 18 18 18 18 18 19 19 20 21 22 22 23 24 25 27 28 29 30 31 32 32 33 33 34 36 37 38 38 37 37 37 37 36 34 33 31 31 31 32 33 35 36 36 36 35 33
32 32 32 30 27 24 21 19 18 18 19 20 22 24 26 28 29 31 31 31 31 30 29 27 26 25 25 25 25 25 25 24 24 23 22 21 20 19 18 18 17 17 17 17 17 17 18 18 19 21 22 23 25 27 28 29 30 30 31 32 33 35 37 37 38 38 39 39 39 39 39 39 38 36 34 33 32 32 32 33 33 34 34 35 34 32
32 32 31 28 24 21 18 17 17 18 19 21 23 24 26 28 30 31 32 32 31 30 29 28 26 26 26 26 26 25 24 22 21 20 19 19 18 17 17 17 17 17 17 17 17 17 16 17 18 20 22 24 26 28 29 30 30 31 31 32 33 35 37 39 40 41 41 41 41 41 41 41 39 37 35 33 32 32 32 32 32 32 32 33 32 29
31 30 28 25 22 18 16 16 17 18 20 22 24 26 28 29 31 32 32 32 31 30 29 28 27 26 27 27 27 26 24 21 19 18 17 16 16 16 16 16 16 16 16 16 16 16 17 17 18 19 21 23 25 27 29 30 30 31 31 32 33 35 37 38 40 42 43 43 43 43 43 42 41 38 36 34 32 31 31 31 31 31 31 31 30 26
30 28 26 23 19 17 16 16 17 19 21 22 24 27 29 30 32 32 32 31 31 29 28 27 26 27 27 28 27 26 24 22 19 17 15 14 14 14 14 15 16 16 17 17 17 17 17 18 19 20 21 23 25 26 28 29 30 31 31 32 33 35 37 38 40 42 43 44 44 44 44 44 42 40 38 35 33 31 30 30 29 29 29 28 25 20
28 26 24 21 18 16 15 16 18 20 21 23 25 27 30 32 33 33 32 31 30 28 27 26 25 26 26 27 27 27 25 23 20 18 15 14 13 13 13 14 15 16 17 18 19 19 19 19 20 21 22 23 25 26 27 28 29 30 31 32 33 35 37 39 40 41 42 43 43 44 45 44 44 42 39 36 33 31 30 29 28 27 26 23 19 15
26 24 22 20 18 16 16 17 19 20 22 23 25 27 30 33 34 34 33 31 29 28 27 25 25 25 25 26 26 26 25 24 22 19 17 14 13 12 13 13 14 15 16 17 18 19 20 21 21 22 23 24 25 26 26 27 29 30 31 32 33 35 36 38 40 41 42 42 42 43 44 44 44 43 41 37 33 31 29 27 25 23 20 17 15 14
24 22 21 19 18 18 18 19 20 21 22 24 25 27 30 33 34 34 33 30 29 27 26 26 25 24 24 25 25 25 24 23 21 19 17 15 13 12 12 12 13 13 14 15 16 16 18 19 21 22 23 24 25 26 27 28 29 30 32 33 34 35 36 38 39 40 41 41 41 42 42 43 44 43 41 39 35 32 30 26 22 17 14 13 14 14
21 20 19 18 18 19 20 21 22 23 24 24 26 27 30 33 34 34 32 30 28 26 26 25 24 24 24 25 25 25 24 22 21 19 17 16 14 13 12 12 12 12 12 12 12 12 13 15 17 20 22 24 26 27 29 30 30 31 32 33 34 35 36 37 38 40 40 41 41 41 42 43 44 43 42 40 36 33 29 24 18 13 12 14 15 14
18 17 17 18 19 20 22 23 24 25 25 25 26 28 30 33 34 33 31 29 27 26 25 24 23 24 24 25 25 24 24 23 21 19 18 16 15 14 13 13 12 12 12 12 12 12 12 13 15 18 21 24 26 28 30 31 32 32 33 34 34 35 35 37 38 39 40 40 40 41 42 43 43 43 42 41 37 33 28 22 15 12 14 16 16 15
Wind_Direction
312 312 311 311 312 312 312 313 314 314 313 313 314 314 314 314 313 312 312 312 311 310 309 308 308 307 305 304 304 303 303 303 302 301 300 300 299 298 297 296 294 293 292 291 290 288 287 285 284 282 280 279 277 276 275 274 273 272 271 270 269 268 268 267 266 265 265 264 264 263 262 261 259 256 253 251 253 256 256 256 255 255 255 254 254 253
312 312 312 312 313 313 313 314 315 315 315 315 315 316 316 316 316 315 315 315 314 314 313 312 312 312 311 311 310 310 309 308 307 305 304 303 302 300 299 298 297 296 295 293 292 290 288 286 284 282 281 279 278 277 276 274 273 272 272 271 270 269 269 268 267 266 265 265 264 263 262 261 258 255 251 249 249 250 251 251 251 251 251 251 250 250
313 313 313 313 314 315 314 315 315 316 317 317 318 318 319 319 318 318 318 318 317 317 317 316 316 316 315 315 314 313 311 310 308 307 306 305 304 303 302 301 300 299 298 296 294 291 289 287 285 283 282 280 279 278 276 275 274 273 272 271 270 269 269 268 267 266 265 264 264 263 262 260 258 255 252 250 249 248 247 247 247 248 248 249 250 250
314 314 314 315 315 316 316 316 317 317 319 320 320 321 321 321 320 320 320 320 320 319 319 319 319 318 316 315 314 313 311 310 309 309 308 308 307 307 306 304 303 301 299 296 294 291 289 287 286 284 282 281 279 278 276 275 274 273 272 271 270 269 269 268 267 266 265 264 263 262 261 260 258 256 254 252 251 250 249 249 249 249 250 251 252 253
315 316 316 316 316 316 317 318 319 320 322 322 323 323 323 322 321 321 321 321 321 321 320 320 318 317 315 314 314 313 313 313 312 312 311 311 310 308 307 305 303 301 298 296 294 292 290 288 286 285 283 281 279 278 276 275 274 273 272 271 270 269 268 267 266 266 265 264 263 262 261 259 258 256 255 254 253 252 253 253 252 251 252 254 254 255
316 317 317 317 317 317 318 320 322 323 324 324 324 323 323 322 322 322 322 322 321 320 319 318 317 316 315 315 315 315 315 315 314 314 312 311 310 308 307 305 303 301 298 296 295 293 292 290 289 287 285 283 281 279 277 275 274 272 271 271 270 269 267 266 265 265 265 264 263 262 260 259 258 257 256 254 253 253 255 256 254 253 254 255 256 256
317 318 319 319 319 319 321 323 324 325 325 324 323 323 323 323 323 323 322 321 319 318 317 317 317 317 317 317 317 317 316 315 314 313 312 311 310 308 307 305 304 302 301 300 299 298 297 295 293 291 289 286 284 282 279 277 275 273 271 270 269 268 266 265 264 263 263 262 261 261 260 259 259 258 257 256 255 254 254 255 254 254 254 255 256 257
318 319 319 320 321 322 323 324 325 324 323 322 322 322 323 323 323 322 320 319 318 317 317 318 318 318 318 317 317 316 315 315 314 313 312 311 311 310 309 308 308 307 306 306 305 304 302 300 298 295 293 290 288 285 283 280 277 275 272 270 268 266 265 263 262 261 261 261 260 260 260 260 260 259 259 258 257 256 256 255 255 255 256 257 258 259
319 320 320 321 323 324 324 325 324 322 321 320 321 321 322 322 321 321 319 318 318 318 318 318 318 318 318 317 317 316 315 315 314 314 315 315 315 315 314 314 314 313 312 311 310 308 305 303 300 298 295 293 290 288 285 282 280 277 274 271 269 267 266 264 263 262 262 261 261 261 261 261 261 261 261 260 260 259 259 258 258 258 259 259 260 261
320 321 322 323 324 324 324 323 322 321 320 320 320 320 320 319 319 319 319 319 319 319 318 318 317 317 317 317 317 317 317 317 317 318 319 320 320 320 319 318 318 316 315 313 311 309 306 304 301 299 296 294 292 289 287 284 282 279 277 275 273 271 269 267 266 265 264 263 262 262 261 261 261 261 261 261 261 261 261 261 261 261 262 262 262 263
321 323 324 324 324 324 322 321 320 320 320 320 320 320 320 320 319 318 318 318 319 320 319 318 317 316 316 317 319 320 321 322 322 323 324 324 324 323 322 320 319 317 316 313 311 308 306 304 302 300 297 295 293 290 288 285 283 281 279 277 276 274 272 271 269 268 266 265 263 262 261 261 261 261 261 261 262 262 262 262 263 263 263 264 264 263
323 325 324 322 321 320 319 319 319 320 320 320 320 320 320 320 320 318 317 317 318 318 318 318 317 317 318 320 323 325 326 327 327 327 327 327 326 325 323 321 319 318 316 313 311 308 307 305 303 301 298 296 294 291 289 286 284 282 280 279 277 276 274 273 271 270 268 266 264 263 262 261 260 260 260 260 261 261 262 263 263 264 264 264 264 263
324 323 320 316 314 314 315 317 318 319 320 320 320 320 320 320 319 317 316 315 316 317 317 318 318 320 323 325 327 328 329 329 328 328 327 327 326 325 323 321 320 318 317 314 312 311 309 307 305 302 300 297 295 292 290 287 285 283 282 280 278 277 275 274 272 271 269 267 266 264 262 261 260 259 259 259 260 261 261 262 263 263 264 264 263 263
321 316 312 310 310 312 314 316 317 318 319 320 320 319 318 318 317 316 315 315 316 317 318 319 321 324 328 329 330 329 329 328 327 327 326 326 326 325 323 322 321 319 318 316 315 314 312 310 307 305 302 299 296 294 291 289 287 285 283 281 279 278 276 274 273 271 270 268 266 265 263 261 260 259 259 259 259 260 261 261 262 263 263 263 263 263
313 311 309 310 312 314 316 317 318 318 319 320 319 318 317 316 316 316 316 316 318 319 321 323 325 328 330 331 330 329 328 326 326 326 325 325 326 326 324 323 322 321 320 318 317 316 315 313 310 308 306 303 301 298 296 293 291 288 286 283 281 279 277 276 274 272 270 269 267 265 264 262 261 260 259 259 259 260 260 261 262 262 262 262 262 262
310 310 311 313 315 316 317 318 318 318 319 319 318 317 316 316 316 317 318 319 321 323 325 326 328 329 331 331 331 329 327 325 324 324 324 325 327 328 326 324 322 322 321 319 318 318 316 315 313 311 310 308 306 304 301 298 295 292 288 286 283 281 279 277 276 274 272 269 268 266 265 263 262 261 260 260 259 260 260 261 261 261 262 261 260 258
311 312 313 314 316 317 318 319 319 319 319 318 317 316 316 317 318 320 321 323 324 325 326 327 327 327 329 331 332 331 328 325 324 324 324 325 327 329 327 324 322 321 321 320 320 319 318 317 315 314 313 312 310 307 304 301 297 293 290 287 284 282 280 279 277 275 273 271 269 267 266 264 263 262 261 260 260 260 260 260 260 260 261 260 259 256
312 313 314 315 316 318 318 319 319 319 318 317 317 317 317 319 321 323 324 325 325 325 325 325 324 325 326 328 331 333 330 326 324 323 324 325 327 328 327 324 322 321 321 321 321 321 320 318 318 317 315 314 312 309 305 301 296 292 289 286 283 281 280 279 278 276 275 273 270 268 266 265 263 262 262 261 261 260 260 260 259 259 259 259 258 256
313 314 315 316 317 317 318 319 319 319 318 318 318 320 321 323 325 325 325 324 323 323 322 322 323 324 325 326 329 332 331 327 324 323 323 324 326 327 327 325 322 321 322 323 323 322 321 320 319 318 317 315 312 309 304 299 294 290 286 283 281 279 278 277 276 276 275 273 271 269 266 265 263 262 262 261 261 260 260 260 260 259 259 259 258 257
313 315 316 317 317 317 318 319 319 319 319 320 322 323 325 326 325 324 323 322 322 322 322 322 323 324 325 326 329 331 330 327 324 322 322 322 324 326 327 325 323 323 323 324 324 324 322 321 320 320 318 316 313 308 303 298 293 288 285 282 279 277 275 274 274 273 273 272 271 269 267 265 263 262 261 261 260 260 260 260 260 260 259 259 259 257
313 315 318 318 318 317 318 319 320 321 322 324 326 326 325 324 323 322 322 322 322 322 322 323 323 324 325 325 328 330 329 326 323 322 322 322 323 326 327 326 324 323 324 325 326 325 323 323 322 322 321 319 315 311 305 299 293 289 285 281 278 275 273 272 272 271 271 271 270 268 267 265 263 262 261 260 260 260 259 259 259 259 259 259 259 258
314 317 319 320 319 319 319 320 322 324 326 327 326 324 322 321 321 321 322 322 323 323 323 322 323 323 324 325 326 328 328 326 324 323 322 322 323 325 327 326 324 324 325 326 327 326 325 325 325 324 324 322 318 313 307 300 294 289 284 280 277 274 272 271 270 270 270 270 269 268 267 265 264 263 262 261 261 260 260 260 260 260 260 260 260 259
317 319 321 321 320 320 321 323 325 326 327 326 324 322 321 320 320 321 322 323 323 323 322 322 322 322 323 324 325 327 327 326 325 323 323 322 323 325 326 326 325 325 326 327 328 327 326 325 326 326 325 323 320 314 308 301 294 289 283 279 275 272 271 270 270 270 270 270 270 269 268 267 266 265 264 263 262 261 261 261 261 261 261 261 262 262
319 321 321 321 322 322 323 324 325 326 325 324 322 322 321 321 321 322 323 323 322 322 321 320 320 321 323 324 325 326 327 327 326 324 323 322 322 324 326 326 326 326 327 328 328 327 326 325 326 326 325 324 321 316 309 302 295 288 282 277 273 271 270 270 270 270 271 272 272 271 271 270 268 267 266 264 263 263 263 262 263 263 263 264 264 264
321 321 322 322 323 323 324 324 325 325 325 324 323 323 323 322 322 322 322 321 321 319 318 318 319 320 323 324 325 326 328 328 327 326 324 322 322 324 326 327 326 326 327 328 328 327 326 325 326 327 326 325 322 317 311 303 295 286 279 275 272 270 270 271 271 272 273 274 274 274 273 272 270 269 267 266 266 265 265 266 266 267 267 267 267 267
322 322 322 323 323 324 324 324 324 325 325 325 324 323 322 321 321 320 320 319 319 318 318 318 319 321 323 325 326 328 329 329 329 327 325 323 323 325 328 328 327 327 327 328 328 327 326 326 327 327 327 326 322 317 310 302 292 283 277 274 272 271 272 273 274 276 276 277 277 276 274 273 271 270 269 269 270 270 271 271 271 272 271 271 271 270
324 324 324 324 325 325 325 325 326 326 326 326 324 322 320 319 318 317 317 318 318 318 318 319 321 323 325 327 328 330 331 332 331 329 326 324 324 326 328 329 329 328 328 328 328 328 327 327 328 329 329 327 324 318 310 301 291 283 278 276 275 275 276 277 278 278 278 278 276 275 273 272 272 272 273 274 275 275 276 276 276 276 275 275 274 272
327 327 328 327 327 327 327 327 327 327 327 325 322 320 317 316 316 316 317 317 318 319 320 321 323 325 327 329 330 331 333 334 333 330 327 325 325 326 328 329 330 329 329 328 328 328 328 329 331 332 332 331 328 322 314 304 295 288 283 281 280 280 280 279 278 277 276 274 273 273 273 274 276 277 278 279 279 279 279 279 278 278 277 276 275 273
331 330 330 330 329 328 328 328 327 327 325 322 320 317 316 315 315 315 317 318 320 321 323 325 327 328 329 330 331 332 335 337 335 331 328 326 326 327 329 330 330 331 330 329 329 329 331 333 335 336 336 335 333 327 318 308 299 292 288 285 283 282 279 278 276 275 275 275 276 277 279 281 282 283 283 283 282 281 281 280 280 279 278 276 275 273
333 333 332 331 330 328 328 327 326 325 323 320 318 317 316 316 316 317 319 321 323 325 326 328 329 330 331 331 332 334 336 338 336 332 328 326 326 327 329 330 331 332 332 331 331 331 333 338 341 341 341 340 337 332 322 311 302 295 290 286 283 281 280 279 279 280 282 284 286 287 288 289 288 287 286 285 284 283 282 281 281 280 278 277 275 274
335 334 333 331 330 329 328 327 325 324 322 320 320 319 319 319 320 321 323 325 326 327 328 329 330 332 333 333 333 335 336 338 336 332 329 327 327 328 330 331 332 334 334 333 332 332 334 341 347 350 348 347 344 338 326 315 307 302 298 295 293 292 291 291 292 293 294 296 296 295 294 292 290 288 286 285 284 283 283 282 281 280 278 277 276 275
336 334 333 331 330 329 328 327 325 324 323 323 323 323 323 323 324 325 326 327 327 328 328 329 331 332 333 334 334 335 336 337 336 333 331 329 328 329 331 332 333 335 336 335 334 334 335 340 349 357 359 358 354 346 334 326 321 318 316 315 314 312 310 308 307 307 306 304 301 298 295 292 289 287 286 285 285 285 285 284 283 282 280 279 278 278
336 334 331 330 329 328 327 327 326 326 327 327 327 327 326 326 326 326 327 327 328 328 328 329 331 332 333 334 335 335 336 337 336 334 332 330 329 330 331 333 334 336 337 337 337 337 338 343 350 360 7 10 6 356 346 341 339 338 336 334 331 328 324 321 318 316 314 311 307 303 300 297 294 293 292 291 290 290 290 289 288 287 286 285 284 284
334 332 330 328 327 327 327 328 328 329 330 330 330 329 328 328 328 327 327 327 327 327 328 329 330 332 333 334 334 335 336 337 336 334 332 330 329 330 332 334 335 337 338 339 341 342 345 350 356 3 12 20 20 11 1 357 356 354 351 347 342 337 332 328 325 323 322 320 318 314 311 308 305 303 301 299 298 297 296 295 294 294 293 292 291 291
331 330 328 327 327 327 328 329 331 332 332 332 331 331 330 329 329 329 328 327 327 326 326 327 329 331 333 334 334 335 336 336 336 334 333 331 330 331 333 335 337 339 340 342 345 348 351 360 6 10 14 23 28 25 16 10 7 6 3 359 353 347 341 337 335 333 333 331 328 325 322 319 315 312 310 307 305 304 303 302 301 299 297 296 295 294
329 329 328 327 328 328 330 331 333 333 333 333 333 332 332 331 331 330 329 328 327 325 325 325 326 329 331 333 334 335 335 335 335 334 333 332 331 332 334 337 340 341 342 345 349 353 358 7 15 19 20 22 25 26 22 17 15 14 12 9 4 357 351 346 343 341 340 338 336 333 329 325 322 320 317 315 313 311 310 310 308 306 302 298 295 293
329 329 328 328 329 330 331 333 334 335 335 334 334 334 334 333 333 331 330 329 328 326 325 324 325 327 330 333 334 335 335 335 335 334 334 333 333 334 336 339 342 345 346 348 352 357 4 11 19 25 26 25 23 22 20 17 16 16 16 14 9 2 356 351 348 345 343 342 340 337 334 332 329 327 325 323 320 318 317 316 314 311 307 303 298 295
330 330 329 330 330 331 333 334 336 337 337 336 336 337 336 336 335 334 333 332 331 329 328 327 327 328 330 333 334 334 334 334 334 334 334 334 335 336 338 341 346 350 351 352 355 360 6 12 17 21 26 28 26 22 17 14 13 13 14 14 10 5 358 354 350 347 346 344 343 342 340 339 337 335 333 330 326 323 321 319 316 313 310 308 304 300
330 331 331 331 331 333 334 336 338 339 339 339 339 339 339 338 337 337 336 336 334 333 331 330 329 330 332 333 334 335 335 335 335 335 335 336 338 339 341 345 349 354 358 359 0 3 7 10 13 15 17 21 24 23 19 14 11 10 10 10 9 6 1 355 351 349 346 345 345 345 345 344 343 342 340 336 333 328 324 321 319 317 315 313 311 309
331 331 331 331 333 334 337 340 341 342 342 342 342 342 341 340 340 340 341 340 339 337 334 333 332 332 333 335 336 336 336 336 336 337 337 339 340 342 345 348 353 358 3 5 7 7 9 9 10 11 11 12 16 19 19 15 11 9 8 7 6 5 2 357 353 350 348 347 346 346 347 348 348 347 345 342 338 333 328 325 323 321 319 317 314 312
332 331 331 332 334 337 340 343 344 345 345 346 347 347 346 345 344 345 345 345 343 341 338 336 334 334 335 337 338 338 339 339 339 339 339 341 343 345 348 351 356 1 6 10 11 12 10 9 9 8 7 8 11 15 16 13 10 8 6 4 3 2 1 359 355 352 350 349 349 349 349 350 350 349 347 345 342 338 333 330 326 323 320 318 316 313
331 331 332 333 336 340 344 347 348 349 349 351 352 352 350 349 348 348 348 348 347 345 342 340 338 336 337 338 340 341 342 342 342 341 341 342 345 348 351 354 358 3 6 10 13 14 13 10 8 7 6 7 8 11 12 10 8 6 4 1 0 360 0 359 356 354 352 351 351 352 351 351 351 350 349 347 344 340 335 330 325 321 317 315 315 314
331 331 332 335 338 343 348 351 352 354 355 357 357 355 353 351 350 349 348 348 348 347 345 343 341 339 339 340 342 344 345 346 345 344 343 344 347 350 352 355 358 1 3 6 10 13 15 12 9 7 7 7 8 8 7 7 6 4 3 1 360 358 357 357 356 355 354 354 354 354 354 354 353 353 352 350 347 343 338 331 325 318 314 311 311 311
331 332 334 337 341 347 352 355 357 359 1 1 359 356 354 352 350 349 348 348 347 347 346 344 343 341 341 342 343 346 348 349 349 348 347 348 350 351 352 353 355 357 359 1 4 7 10 10 8 7 7 7 7 6 5 4 3 3 3 2 0 358 356 355 355 355 356 356 357 357 356 356 356 355 354 352 349 346 341 334 327 319 313 309 308 308
331 333 336 340 346 352 357 358 360 2 4 2 359 356 353 351 350 348 348 347 347 347 347 346 345 344 343 343 344 346 349 352 353 354 353 353 353 352 350 350 352 353 355 356 358 359 0 1 2 3 4 5 5 4 3 2 2 2 2 1 1 359 358 357 356 356 356 356 357 357 357 357 357 356 355 354 352 348 343 336 328 320 314 310 308 308
334 336 340 345 350 354 356 357 0 3 3 0 357 355 353 351 350 349 348 347 347 347 347 346 346 346 345 345 345 347 350 353 357 360 1 0 357 353 349 349 350 351 352 353 354 354 354 354 355 356 358 1 2 2 1 1 0 0 0 0 0 360 360 359 358 357 356 356 356 356 356 357 357 356 356 355 354 351 346 338 330 321 315 312 312 315
337 340 344 349 352 354 355 357 360 1 1 358 356 353 352 351 350 349 348 347 346 346 346 346 347 347 347 346 347 348 351 354 358 1 4 6 2 356 350 349 350 351 351 352 352 352 352 352 352 353 354 356 358 359 360 359 359 359 358 358 359 359 360 0 360 358 357 356 356 355 355 356 356 356 357 357 356 353 348 341 332 323 317 316 321 332
341 344 348 352 353 353 353 355 358 359 358 356 354 352 351 351 350 349 348 347 346 346 346 346 347 347 347 348 349 350 352 355 357 360 3 6 4 359 353 351 351 352 353 352 352 352 351 351 351 352 352 353 354 355 357 357 357 357 357 357 357 358 359 360 360 359 358 357 356 355 355 354 354 355 356 357 358 356 352 345 335 326 322 328 341 352
345 348 351 354 354 353 353 354 356 357 357 355 352 351 351 351 350 350 349 348 347 347 348 347 347 347 348 349 350 352 353 355 357 358 0 3 3 360 354 352 352 354 355 355 355 354 353 351 350 350 350 351 352 353 354 355 356 356 355 355 356 356 357 359 360 360 359 358 357 356 355 355 354 355 355 356 357 358 356 350 342 336 340 352 1 4
348 351 353 355 355 354 354 354 355 356 355 353 351 350 350 350 351 351 351 350 350 350 350 349 348 348 348 350 351 353 354 355 357 358 359 2 2 359 353 349 349 350 352 353 353 354 354 351 349 349 349 351 352 353 353 353 353 354 354 354 355 355 356 358 359 0 360 359 358 358 357 356 355 355 355 355 357 359 360 357 355 359 8 11 13 14
350 353 355 355 354 354 354 354 355 355 354 352 350 349 350 351 352 353 353 354 354 353 352 351 350 350 350 351 352 354 354 354 355 356 358 360 0 358 352 346 343 342 342 343 343 343 343 344 346 349 351 352 352 353 353 352 352 352 353 354 354 355 356 358 359 0 0 0 0 0 359 358 356 355 354 355 358 1 3 6 13 22 20 19 22 25
Height
2900 2898 2895 2892 2890 2888 2885 2882 2880 2878 2876 2873 2870 2868 2866 2864 2862 2859 2858 2856 2854 2852 2849 2847 2846 2844 2843 2841 2840 2839 2838 2836 2835 2834 2833 2832 2830 2829 2828 2826 2825 2824 2823 2822 2821 2820 2819 2818 2817 2816 2815 2814 2813 2812 2811 2811 2810 2809 2809 2808 2808 2807 2807 2806 2806 2806 2806 2806 2806 2806 2806 2807 2807 2808 2808 2810 2812 2813 2815 2815 2816 2816 2816 2817 2817 2817
2897 2893 2890 2888 2886 2884 2881 2878 2876 2874 2872 2869 2867 2864 2862 2860 2858 2855 2853 2852 2850 2848 2846 2843 2841 2840 2838 2836 2835 2834 2833 2832 2831 2829 2828 2827 2826 2824 2823 2822 2821 2819 2818 2817 2816 2815 2814 2813 2812 2811 2810 2809 2808 2807 2807 2806 2805 2805 2804 2803 2803 2802 2802 2802 2801 2801 2801 2801 2801 2801 2801 2802 2802 2802 2803 2803 2805 2806 2808 2808 2809 2810 2810 2810 2809 2809
2893 2890 2887 2884 2882 2880 2878 2875 2873 2870 2868 2866 2863 2861 2858 2856 2853 2851 2849 2848 2846 2844 2842 2840 2838 2836 2834 2833 2832 2830 2829 2828 2827 2825 2824 2822 2821 2819 2818 2817 2816 2815 2814 2813 2812 2810 2809 2808 2807 2806 2805 2804 2803 2803 2802 2801 2800 2800 2799 2799 2798 2798 2797 2797 2797 2797 2797 2797 2796 2797 2796 2796 2797 2797 2798 2798 2798 2799 2800 2801 2801 2802 2802 2803 2803 2803
2888 2886 2883 2880 2878 2875 2873 2872 2869 2867 2864 2862 2859 2857 2854 2852 2850 2848 2846 2844 2842 2839 2838 2836 2834 2832 2830 2829 2828 2826 2825 2823 2822 2821 2819 2818 2816 2815 2814 2813 2812 2811 2810 2808 2807 2806 2805 2804 2803 2802 2801 2800 2799 2798 2797 2796 2795 2795 2794 2794 2793 2793 2793 2793 2792 2792 2792 2792 2791 2791 2791 2791 2792 2792 2792 2793 2793 2793 2794 2795 2795 2796 2797 2797 2798 2798
2884 2882 2879 2877 2874 2871 2869 2867 2865 2863 2860 2857 2855 2853 2851 2848 2846 2843 2841 2839 2838 2835 2833 2832 2830 2829 2827 2825 2823 2822 2820 2819 2818 2816 2815 2814 2813 2811 2810 2809 2808 2807 2805 2804 2803 2802 2801 2800 2799 2798 2797 2795 2794 2793 2793 2792 2791 2790 2789 2789 2788 2788 2788 2788 2788 2787 2787 2787 2787 2787 2786 2786 2786 2787 2787 2787 2788 2788 2790 2790 2790 2791 2791 2792 2793 2793
2880 2878 2876 2874 2871 2868 2865 2863 2861 2858 2855 2853 2851 2849 2848 2845 2843 2840 2838 2836 2834 2832 2830 2829 2827 2825 2823 2821 2819 2818 2816 2815 2813 2813 2811 2810 2809 2808 2807 2805 2804 2803 2802 2800 2799 2798 2797 2796 2795 2793 2792 2791 2790 2789 2788 2788 2787 2786 2785 2785 2784 2784 2783 2783 2783 2783 2783 2783 2782 2782 2782 2781 2781 2781 2781 2782 2782 2783 2787 2787 2786 2785 2786 2787 2787 2787
2876 2874 2872 2870 2867 2864 2862 2859 2857 2855 2852 2849 2847 2845 2844 2842 2839 2837 2835 2833 2831 2829 2827 2825 2823 2822 2820 2818 2816 2814 2813 2812 2810 2809 2808 2807 2806 2804 2803 2802 2800 2799 2798 2797 2795 2794 2793 2792 2791 2789 2788 2787 2786 2785 2784 2783 2783 2782 2781 2781 2780 2780 2779 2778 2778 2778 2778 2778 2777 2777 2776 2776 2776 2776 2776 2776 2777 2777 2778 2780 2780 2780 2780 2780 2781 2781
2873 2870 2868 2866 2863 2860 2858 2855 2854 2853 2850 2848 2844 2842 2840 2838 2836 2834 2832 2831 2829 2827 2824 2821 2819 2818 2817 2815 2813 2812 2810 2808 2807 2806 2804 2803 2802 2801 2799 2798 2797 2795 2794 2793 2792 2791 2789 2788 2787 2786 2784 2783 2782 2781 2780 2779 2778 2777 2777 2776 2775 2775 2774 2773 2773 2773 2772 2772 2771 2771 2771 2771 2771 2771 2771 2772 2772 2772 2773 2773 2773 2774 2775 2775 2776 2776
2870 2867 2865 2863 2860 2858 2854 2852 2851 2851 2849 2846 2843 2840 2838 2835 2833 2831 2829 2827 2826 2824 2822 2819 2816 2814 2813 2813 2811 2809 2808 2806 2804 2803 2801 2799 2798 2797 2795 2794 2793 2792 2791 2790 2788 2787 2786 2785 2784 2782 2781 2780 2778 2777 2776 2775 2774 2773 2772 2771 2770 2769 2769 2768 2768 2768 2767 2767 2767 2767 2766 2766 2766 2767 2767 2767 2768 2768 2768 2769 2769 2770 2770 2771 2772 2772
2867 2864 2861 2859 2857 2855 2853 2850 2848 2848 2847 2844 2842 2839 2837 2833 2830 2827 2824 2823 2822 2821 2820 2817 2814 2812 2810 2809 2808 2807 2805 2803 2801 2800 2798 2796 2795 2793 2792 2791 2790 2788 2788 2787 2785 2784 2783 2782 2780 2779 2778 2776 2775 2773 2772 2771 2770 2768 2768 2767 2766 2765 2764 2764 2763 2763 2763 2763 2763 2762 2762 2762 2762 2762 2762 2763 2763 2763 2764 2764 2765 2766 2766 2767 2768 2768
2864 2861 2858 2856 2854 2853 2852 2849 2847 2845 2844 2842 2839 2837 2835 2833 2829 2825 2822 2819 2818 2817 2816 2815 2813 2810 2807 2806 2805 2803 2802 2799 2798 2796 2795 2793 2792 2790 2789 2788 2787 2785 2784 2783 2782 2781 2780 2778 2777 2775 2774 2773 2771 2770 2768 2767 2766 2765 2763 2763 2762 2761 2760 2760 2759 2759 2758 2758 2758 2758 2758 2758 2758 2758 2758 2758 2758 2759 2759 2760 2761 2761 2762 2763 2763 2764
2861 2858 2856 2854 2853 2851 2849 2847 2845 2843 2841 2839 2836 2833 2831 2830 2828 2825 2821 2817 2815 2814 2813 2811 2810 2808 2806 2803 2801 2799 2798 2796 2794 2792 2791 2790 2788 2787 2786 2784 2783 2782 2781 2780 2778 2777 2776 2775 2773 2772 2770 2769 2768 2766 2765 2763 2762 2761 2760 2759 2758 2757 2756 2755 2755 2754 2754 2753 2753 2753 2753 2753 2753 2753 2753 2754 2754 2755 2755 2756 2757 2757 2758 2759 2759 2760
2859 2858 2857 2854 2852 2850 2848 2845 2843 2840 2838 2837 2834 2831 2828 2826 2825 2823 2820 2817 2814 2812 2810 2808 2806 2805 2804 2802 2799 2797 2794 2793 2791 2789 2788 2787 2786 2784 2783 2781 2779 2778 2777 2775 2774 2773 2772 2771 2769 2768 2767 2765 2764 2763 2762 2760 2758 2757 2756 2755 2754 2753 2752 2751 2751 2750 2749 2749 2749 2748 2748 2748 2749 2749 2749 2750 2750 2751 2752 2752 2753 2753 2754 2755 2755 2756
2859 2858 2856 2853 2850 2848 2846 2843 2841 2838 2836 2834 2832 2829 2827 2824 2823 2820 2818 2815 2813 2811 2808 2806 2803 2802 2800 2799 2797 2795 2793 2790 2788 2787 2785 2784 2783 2782 2780 2778 2776 2774 2773 2771 2770 2769 2768 2767 2765 2764 2763 2762 2761 2759 2758 2757 2755 2754 2753 2751 2750 2749 2748 2747 2747 2746 2745 2745 2745 2744 2744 2744 2744 2745 2745 2746 2746 2747 2748 2748 2749 2749 2750 2750 2751 2752
2858 2856 2853 2850 2847 2845 2843 2841 2838 2836 2834 2832 2830 2828 2825 2823 2820 2818 2816 2813 2810 2808 2806 2803 2801 2799 2798 2797 2796 2793 2791 2788 2786 2784 2783 2782 2781 2780 2778 2774 2772 2771 2769 2768 2766 2765 2764 2763 2761 2759 2758 2758 2757 2755 2754 2753 2751 2750 2749 2748 2746 2745 2744 2743 2743 2742 2742 2741 2741 2740 2740 2740 2741 2741 2741 2742 2743 2743 2743 2744 2745 2745 2746 2746 2747 2748
2855 2853 2850 2847 2844 2843 2841 2839 2837 2834 2831 2829 2828 2825 2823 2820 2818 2816 2814 2811 2808 2805 2803 2800 2798 2796 2795 2795 2795 2793 2790 2787 2784 2782 2780 2778 2778 2777 2775 2772 2769 2767 2766 2765 2763 2761 2760 2759 2758 2756 2755 2754 2753 2752 2750 2749 2747 2746 2745 2743 2743 2741 2741 2740 2739 2738 2738 2738 2737 2737 2737 2737 2737 2737 2738 2738 2739 2739 2740 2740 2741 2741 2742 2743 2743 2745
2853 2850 2848 2844 2842 2840 2838 2837 2835 2832 2830 2828 2825 2823 2821 2819 2816 2814 2811 2809 2806 2803 2801 2799 2796 2793 2791 2791 2792 2792 2790 2786 2782 2779 2777 2775 2774 2774 2773 2770 2766 2764 2763 2762 2760 2759 2757 2756 2754 2753 2752 2750 2749 2748 2747 2745 2743 2742 2741 2740 2738 2738 2737 2736 2735 2735 2734 2734 2734 2733 2733 2733 2733 2734 2734 2735 2735 2735 2736 2737 2737 2738 2738 2739 2739 2740
2850 2848 2845 2842 2840 2838 2836 2834 2833 2830 2828 2826 2823 2821 2819 2817 2814 2812 2809 2807 2805 2802 2800 2798 2796 2793 2791 2788 2788 2789 2788 2784 2780 2776 2774 2772 2771 2771 2771 2768 2764 2762 2760 2759 2758 2756 2754 2753 2752 2750 2749 2748 2746 2745 2743 2742 2740 2739 2737 2736 2735 2734 2733 2733 2732 2731 2731 2731 2731 2730 2730 2730 2730 2731 2731 2731 2732 2732 2733 2733 2733 2734 2734 2734 2735 2735
2847 2845 2843 2840 2838 2836 2834 2833 2831 2829 2826 2823 2821 2818 2815 2813 2812 2810 2808 2806 2804 2802 2800 2797 2795 2793 2791 2788 2787 2787 2786 2783 2778 2774 2772 2769 2768 2768 2768 2765 2762 2759 2758 2756 2755 2753 2752 2750 2749 2748 2747 2745 2744 2742 2741 2739 2738 2736 2734 2733 2732 2731 2730 2729 2729 2728 2728 2728 2727 2727 2727 2727 2727 2728 2728 2728 2728 2728 2729 2729 2729 2729 2729 2729 2730 2731
2844 2843 2842 2839 2836 2833 2832 2831 2829 2827 2824 2821 2818 2816 2813 2811 2809 2808 2806 2804 2803 2801 2798 2796 2793 2791 2789 2787 2785 2784 2783 2781 2777 2773 2770 2767 2766 2765 2765 2762 2759 2756 2755 2754 2753 2751 2749 2748 2747 2746 2745 2743 2742 2740 2738 2736 2735 2733 2732 2731 2729 2728 2727 2726 2726 2725 2725 2724 2724 2724 2724 2724 2724 2724 2724 2724 2724 2724 2725 2725 2725 2725 2725 2725 2726 2726
2842 2840 2840 2838 2835 2832 2829 2828 2827 2825 2822 2819 2817 2814 2812 2810 2808 2806 2804 2803 2800 2798 2796 2794 2792 2789 2788 2785 2783 2782 2782 2779 2775 2771 2768 2764 2763 2763 2762 2759 2756 2753 2752 2751 2750 2748 2747 2745 2744 2743 2742 2740 2738 2737 2735 2733 2732 2731 2729 2728 2727 2726 2724 2723 2723 2722 2722 2722 2721 2721 2721 2721 2721 2721 2721 2721 2721 2721 2721 2721 2721 2721 2721 2721 2721 2722
2840 2838 2837 2836 2833 2831 2828 2826 2824 2823 2821 2819 2817 2814 2812 2809 2807 2804 2802 2800 2798 2796 2794 2792 2790 2788 2786 2784 2782 2781 2780 2777 2774 2770 2765 2762 2759 2759 2759 2757 2753 2751 2749 2748 2747 2745 2744 2743 2741 2740 2739 2738 2736 2734 2733 2731 2730 2728 2727 2726 2724 2723 2722 2721 2720 2719 2719 2718 2718 2718 2718 2718 2718 2718 2718 2718 2717 2717 2717 2717 2717 2717 2717 2717 2717 2717
2839 2837 2835 2833 2832 2829 2827 2824 2822 2821 2820 2818 2816 2813 2811 2808 2806 2803 2800 2798 2796 2794 2791 2789 2788 2786 2785 2783 2781 2780 2778 2776 2772 2768 2764 2760 2757 2756 2756 2754 2751 2749 2747 2745 2744 2742 2741 2740 2738 2737 2736 2735 2733 2732 2730 2729 2727 2726 2724 2723 2722 2720 2719 2718 2717 2717 2716 2716 2716 2716 2715 2715 2715 2715 2714 2714 2714 2714 2713 2713 2713 2713 2713 2713 2713 2713
2837 2835 2833 2832 2830 2828 2826 2824 2822 2820 2819 2817 2814 2812 2809 2807 2804 2802 2799 2797 2795 2792 2790 2787 2785 2784 2783 2782 2780 2778 2777 2774 2771 2767 2763 2759 2756 2754 2753 2752 2749 2746 2745 2743 2742 2740 2738 2737 2736 2735 2733 2732 2731 2729 2728 2726 2725 2723 2722 2720 2719 2718 2716 2715 2715 2714 2714 2714 2713 2713 2713 2713 2712 2712 2712 2711 2710 2710 2710 2710 2709 2709 2709 2709 2709 2709
2836 2834 2832 2830 2828 2827 2825 2823 2821 2819 2817 2815 2813 2810 2808 2805 2803 2801 2798 2796 2794 2791 2788 2786 2784 2782 2781 2779 2778 2776 2775 2773 2770 2766 2762 2757 2754 2752 2751 2749 2747 2744 2742 2741 2740 2738 2736 2734 2733 2732 2731 2729 2728 2727 2725 2724 2722 2721 2719 2718 2716 2715 2714 2713 2713 2713 2712 2712 2712 2711 2711 2710 2709 2708 2708 2708 2707 2707 2706 2706 2706 2706 2706 2706 2706 2705
2835 2833 2831 2829 2828 2826 2824 2822 2820 2818 2816 2814 2811 2808 2806 2803 2801 2799 2798 2796 2793 2791 2788 2785 2782 2781 2779 2778 2776 2774 2773 2771 2768 2764 2760 2756 2752 2749 2749 2747 2745 2742 2739 2738 2737 2735 2733 2731 2730 2729 2728 2727 2725 2724 2723 2721 2719 2718 2716 2715 2714 2713 2713 2712 2712 2711 2711 2710 2709 2708 2708 2707 2706 2705 2704 2704 2704 2704 2704 2703 2703 2703 2703 2702 2702 2701
2833 2832 2830 2828 2826 2824 2823 2821 2819 2817 2815 2813 2811 2808 2806 2803 2801 2798 2797 2795 2793 2790 2787 2783 2781 2778 2777 2776 2774 2772 2771 2768 2765 2762 2758 2754 2750 2748 2746 2745 2743 2739 2737 2735 2734 2732 2730 2728 2727 2726 2725 2724 2723 2721 2720 2718 2717 2715 2714 2713 2713 2712 2711 2711 2710 2709 2709 2708 2707 2705 2704 2703 2702 2702 2702 2702 2702 2701 2701 2701 2700 2699 2699 2698 2697 2696
2832 2830 2828 2826 2824 2823 2821 2819 2818 2816 2814 2812 2810 2808 2806 2803 2800 2798 2795 2793 2791 2788 2786 2783 2780 2777 2775 2773 2772 2770 2769 2766 2763 2759 2756 2752 2749 2746 2744 2743 2741 2738 2735 2732 2730 2729 2728 2726 2724 2723 2722 2721 2719 2718 2717 2716 2714 2713 2713 2712 2711 2711 2710 2709 2708 2707 2706 2705 2703 2702 2702 2701 2701 2701 2700 2700 2700 2699 2698 2698 2697 2696 2695 2694 2692 2691
2830 2828 2827 2825 2823 2821 2820 2818 2816 2815 2813 2812 2810 2808 2805 2803 2800 2797 2794 2792 2790 2787 2784 2782 2779 2777 2773 2771 2769 2768 2767 2765 2761 2758 2754 2751 2748 2745 2743 2742 2739 2737 2733 2729 2727 2725 2725 2724 2722 2720 2719 2718 2717 2716 2714 2713 2713 2712 2711 2711 2710 2709 2708 2707 2706 2704 2703 2703 2702 2701 2701 2700 2700 2699 2699 2698 2697 2696 2695 2695 2694 2693 2692 2690 2688 2687
2828 2827 2825 2823 2822 2820 2818 2817 2815 2814 2812 2810 2808 2806 2803 2801 2798 2796 2793 2791 2788 2786 2783 2781 2778 2776 2773 2769 2767 2765 2764 2763 2760 2757 2753 2749 2746 2744 2742 2740 2738 2736 2733 2728 2724 2721 2720 2721 2721 2719 2717 2716 2715 2713 2712 2712 2711 2710 2710 2709 2709 2708 2707 2705 2704 2703 2703 2702 2701 2701 2700 2699 2698 2698 2697 2696 2695 2694 2693 2692 2691 2690 2688 2687 2685 2684
2826 2824 2823 2822 2820 2818 2817 2815 2814 2812 2811 2808 2806 2804 2802 2799 2796 2794 2792 2789 2788 2785 2783 2780 2777 2775 2772 2769 2765 2763 2761 2760 2759 2756 2752 2748 2745 2742 2741 2738 2736 2734 2733 2729 2724 2719 2716 2716 2718 2718 2716 2714 2713 2712 2711 2710 2710 2709 2708 2708 2708 2707 2706 2705 2704 2703 2702 2702 2701 2700 2699 2698 2697 2696 2694 2693 2693 2691 2691 2690 2689 2687 2685 2683 2681 2680
2824 2823 2821 2820 2818 2817 2815 2814 2812 2810 2808 2806 2804 2802 2799 2797 2795 2793 2791 2788 2786 2784 2782 2779 2777 2774 2772 2769 2766 2763 2760 2758 2756 2754 2751 2747 2743 2741 2739 2737 2735 2733 2732 2730 2727 2723 2718 2714 2714 2715 2715 2713 2712 2711 2710 2710 2709 2708 2708 2707 2707 2706 2705 2704 2703 2702 2701 2700 2699 2698 2697 2696 2695 2693 2692 2691 2690 2689 2688 2687 2686 2684 2682 2680 2678 2677
2822 2821 2819 2818 2817 2815 2814 2812 2810 2808 2806 2803 2801 2799 2797 2795 2793 2792 2790 2788 2786 2783 2781 2778 2775 2773 2770 2768 2766 2763 2760 2758 2755 2753 2750 2746 2743 2740 2738 2736 2734 2732 2730 2728 2727 2724 2720 2717 2714 2713 2713 2713 2712 2711 2710 2710 2709 2708 2707 2707 2706 2705 2704 2703 2702 2701 2700 2698 2698 2696 2695 2694 2693 2691 2690 2689 2688 2686 2685 2683 2682 2681 2679 2676 2674 2673
2821 2819 2818 2817 2815 2814 2812 2810 2808 2806 2803 2801 2799 2798 2796 2794 2792 2790 2788 2787 2785 2783 2780 2778 2775 2772 2769 2766 2763 2761 2759 2757 2755 2752 2749 2746 2743 2739 2737 2736 2733 2731 2728 2726 2725 2723 2720 2718 2716 2714 2713 2713 2712 2711 2710 2710 2709 2708 2707 2706 2705 2704 2703 2702 2700 2699 2698 2697 2696 2694 2693 2692 2690 2689 2688 2686 2685 2683 2682 2680 2679 2678 2676 2673 2671 2669
2820 2818 2817 2815 2813 2812 2810 2808 2806 2803 2802 2800 2798 2796 2794 2792 2791 2789 2787 2786 2784 2782 2780 2778 2775 2773 2769 2766 2763 2760 2758 2756 2754 2752 2749 2747 2743 2739 2737 2735 2733 2731 2728 2726 2724 2722 2720 2718 2717 2715 2714 2713 2713 2712 2711 2710 2708 2708 2707 2706 2704 2703 2702 2701 2699 2698 2697 2695 2694 2693 2691 2689 2688 2687 2685 2684 2682 2681 2679 2678 2676 2674 2673 2671 2668 2666
2818 2817 2815 2813 2811 2809 2808 2805 2803 2802 2800 2798 2796 2794 2793 2791 2789 2788 2786 2784 2783 2781 2779 2777 2775 2773 2770 2767 2763 2759 2757 2755 2753 2751 2749 2746 2743 2740 2738 2735 2733 2731 2728 2726 2724 2722 2720 2719 2718 2716 2715 2713 2712 2711 2710 2709 2708 2707 2706 2705 2704 2703 2701 2700 2698 2697 2695 2693 2692 2690 2689 2687 2685 2684 2682 2681 2679 2678 2676 2674 2673 2671 2669 2668 2666 2663
2817 2815 2813 2811 2809 2807 2805 2803 2801 2799 2798 2796 2794 2793 2791 2789 2788 2786 2784 2783 2781 2779 2778 2776 2774 2772 2770 2767 2764 2760 2757 2754 2752 2750 2748 2746 2743 2741 2738 2735 2734 2732 2730 2727 2725 2723 2721 2719 2718 2717 2715 2714 2713 2711 2710 2709 2708 2707 2706 2705 2703 2702 2701 2699 2697 2695 2693 2692 2690 2688 2686 2684 2683 2681 2679 2678 2676 2674 2673 2671 2669 2668 2666 2664 2662 2660
2815 2813 2812 2809 2808 2805 2803 2801 2799 2798 2796 2794 2793 2791 2790 2788 2787 2785 2783 2781 2779 2778 2776 2774 2772 2771 2769 2767 2764 2761 2758 2754 2752 2750 2748 2745 2743 2741 2738 2736 2734 2732 2731 2728 2726 2724 2722 2720 2718 2717 2715 2714 2713 2712 2710 2708 2708 2706 2705 2704 2703 2701 2700 2698 2696 2694 2692 2690 2688 2686 2684 2682 2679 2678 2676 2674 2672 2670 2669 2667 2666 2664 2662 2660 2658 2656
2813 2812 2810 2808 2806 2803 2802 2800 2798 2796 2795 2793 2792 2790 2788 2787 2785 2784 2782 2780 2778 2776 2774 2772 2770 2769 2767 2765 2763 2760 2757 2754 2752 2749 2747 2745 2743 2741 2738 2736 2733 2732 2730 2729 2727 2725 2723 2721 2719 2717 2716 2714 2713 2712 2710 2709 2708 2706 2705 2703 2702 2701 2699 2697 2695 2693 2690 2688 2685 2683 2681 2679 2677 2674 2673 2671 2669 2667 2665 2663 2661 2660 2658 2655 2653 2652
2812 2810 2808 2806 2804 2802 2800 2798 2797 2795 2793 2792 2791 2789 2788 2786 2784 2783 2781 2779 2777 2775 2773 2771 2769 2768 2766 2764 2762 2759 2756 2754 2751 2748 2746 2744 2742 2740 2738 2736 2734 2732 2730 2729 2727 2725 2723 2722 2720 2718 2717 2715 2713 2712 2710 2709 2708 2706 2704 2702 2701 2699 2698 2696 2693 2691 2688 2686 2683 2680 2678 2676 2674 2672 2670 2668 2666 2664 2662 2659 2657 2655 2653 2651 2649 2648
2810 2808 2806 2805 2803 2801 2799 2797 2796 2794 2793 2791 2790 2788 2786 2784 2783 2781 2779 2778 2776 2773 2771 2769 2768 2766 2765 2763 2761 2758 2755 2753 2750 2748 2745 2743 2742 2740 2738 2736 2734 2732 2730 2729 2728 2726 2724 2723 2721 2719 2718 2716 2714 2712 2711 2709 2708 2706 2704 2702 2700 2698 2697 2695 2692 2689 2686 2684 2681 2678 2676 2673 2671 2669 2667 2665 2663 2661 2659 2656 2653 2651 2649 2648 2646 2645
2809 2807 2805 2803 2801 2799 2798 2796 2795 2794 2793 2791 2789 2787 2785 2783 2781 2779 2777 2775 2773 2772 2769 2768 2766 2764 2763 2762 2760 2758 2755 2752 2749 2747 2745 2743 2741 2740 2738 2736 2734 2733 2731 2729 2728 2726 2725 2723 2722 2720 2718 2716 2714 2712 2711 2709 2708 2706 2704 2702 2699 2697 2695 2693 2691 2688 2685 2682 2679 2677 2674 2671 2669 2667 2664 2663 2660 2658 2657 2654 2652 2649 2647 2645 2643 2642
2808 2805 2803 2802 2800 2798 2797 2796 2794 2793 2792 2790 2788 2787 2785 2783 2780 2778 2776 2774 2772 2770 2768 2766 2764 2762 2761 2759 2758 2756 2754 2752 2749 2747 2745 2743 2741 2739 2738 2736 2735 2733 2731 2730 2728 2727 2726 2724 2723 2721 2719 2717 2715 2713 2711 2709 2708 2706 2704 2702 2699 2696 2693 2691 2689 2686 2683 2681 2678 2675 2672 2669 2667 2665 2663 2660 2658 2656 2654 2653 2650 2648 2646 2643 2641 2640
2806 2804 2802 2801 2799 2797 2796 2795 2794 2792 2791 2789 2788 2786 2784 2782 2780 2778 2775 2773 2771 2769 2767 2765 2763 2761 2759 2758 2756 2755 2753 2752 2749 2747 2745 2743 2741 2739 2738 2737 2735 2733 2732 2730 2728 2727 2726 2725 2723 2721 2719 2718 2715 2713 2711 2709 2708 2706 2704 2702 2700 2698 2694 2691 2688 2684 2682 2679 2676 2673 2671 2668 2665 2663 2661 2659 2657 2654 2653 2650 2648 2646 2644 2642 2639 2638
2805 2803 2801 2800 2798 2797 2795 2794 2793 2792 2790 2788 2787 2785 2783 2781 2779 2777 2775 2773 2770 2768 2766 2764 2762 2760 2758 2756 2754 2753 2752 2750 2748 2747 2745 2743 2741 2740 2738 2737 2735 2733 2732 2731 2729 2728 2726 2724 2723 2721 2719 2718 2716 2714 2712 2710 2708 2706 2704 2702 2700 2698 2695 2692 2688 2684 2680 2677 2674 2672 2669 2667 2664 2662 2659 2657 2655 2653 2651 2649 2647 2644 2642 2639 2638 2636
2804 2802 2800 2799 2797 2796 2795 2794 2792 2791 2789 2788 2786 2784 2783 2781 2778 2777 2774 2772 2770 2768 2765 2763 2761 2759 2757 2755 2753 2752 2750 2749 2748 2746 2744 2743 2741 2740 2739 2737 2735 2733 2732 2731 2729 2728 2726 2725 2723 2721 2719 2718 2716 2715 2713 2710 2708 2705 2703 2701 2699 2696 2694 2691 2688 2684 2681 2677 2673 2671 2668 2666 2663 2661 2658 2656 2653 2652 2650 2648 2645 2643 2640 2638 2636 2635
2803 2801 2799 2798 2797 2796 2794 2793 2792 2790 2788 2787 2786 2784 2782 2780 2778 2776 2773 2771 2769 2767 2765 2763 2761 2759 2757 2755 2753 2750 2749 2747 2746 2745 2743 2742 2741 2740 2739 2737 2736 2734 2732 2731 2729 2728 2726 2725 2723 2721 2719 2718 2716 2715 2713 2711 2708 2706 2703 2700 2698 2695 2693 2690 2687 2684 2681 2678 2674 2671 2668 2665 2662 2660 2657 2655 2652 2650 2648 2647 2644 2642 2639 2637 2636 2635
2802 2800 2798 2797 2796 2795 2794 2793 2791 2789 2788 2787 2785 2783 2781 2779 2777 2775 2773 2770 2768 2766 2764 2762 2760 2759 2757 2755 2753 2751 2748 2747 2745 2744 2743 2742 2741 2740 2739 2737 2736 2734 2733 2731 2730 2728 2727 2725 2723 2721 2719 2718 2716 2714 2712 2710 2708 2706 2703 2700 2698 2695 2692 2690 2687 2684 2681 2678 2675 2672 2668 2665 2662 2659 2656 2653 2651 2649 2647 2645 2643 2641 2639 2637 2637 2636
2801 2799 2798 2797 2796 2795 2794 2792 2791 2789 2787 2786 2784 2783 2781 2779 2777 2774 2772 2770 2768 2766 2764 2762 2760 2758 2756 2754 2753 2751 2749 2747 2746 2744 2743 2742 2740 2740 2738 2738 2736 2735 2733 2732 2731 2729 2728 2726 2723 2722 2720 2718 2716 2713 2712 2709 2708 2706 2703 2701 2698 2695 2693 2690 2687 2684 2681 2678 2675 2672 2669 2666 2663 2659 2656 2653 2650 2648 2646 2644 2643 2641 2639 2639 2638 2637
2801 2799 2798 2796 2795 2794 2793 2792 2790 2788 2787 2785 2783 2782 2780 2778 2776 2774 2772 2769 2768 2765 2763 2762 2759 2758 2756 2754 2752 2750 2748 2747 2746 2744 2743 2742 2740 2739 2738 2737 2736 2735 2734 2733 2731 2730 2728 2727 2725 2723 2720 2718 2715 2713 2711 2709 2707 2705 2703 2701 2699 2696 2693 2690 2688 2684 2682 2679 2676 2672 2669 2666 2662 2659 2656 2653 2649 2647 2645 2644 2643 2642 2641 2640 2638 2637
2800 2799 2798 2796 2795 2794 2793 2791 2789 2788 2786 2784 2783 2781 2779 2778 2775 2773 2771 2769 2767 2765 2763 2762 2760 2758 2756 2753 2752 2750 2748 2747 2746 2744 2743 2742 2740 2739 2738 2737 2736 2735 2734 2733 2731 2730 2729 2727 2726 2723 2721 2718 2716 2713 2711 2709 2707 2705 2703 2701 2699 2696 2694 2691 2688 2685 2682 2679 2676 2673 2669 2666 2662 2658 2655 2652 2649 2647 2645 2644 2644 2643 2643 2641 2639 2637